Left ArrowRight Arrow

39.01783, -85.05884

Hourly Observations for June 14, 2024

Temp ( °F °C ) Dew Point ( °F °C ) Humidity (%) Winds ( mph kmh ) Pressure ( in mb ) Visibility ( mi km ) Precip ( " mm )
12:52 am 00:52 Mostly Cloudy 73 22.8 56 13.3 55 55 W 6 9 29.93 1014 10 16 0.00 0.00
12:59 am 00:59 Mostly Cloudy with Nearby Thunderstorms 73 22.8 57 13.9 57 57 W 7 11 29.95 1014 10 16 0.00 0.00
1:07 am 01:07 Cloudy with Thunderstorms 74 23.3 57 13.9 56 56 WNW 10 17 29.96 1014 10 16 0.00 0.00
1:31 am 01:31 Mostly Cloudy with Light Rain 67 19.4 61 16.1 81 81 WSW 3 6 29.96 1015 10 16 0.02 0.51
1:52 am 01:52 Mostly Cloudy 69 20.6 61 16.1 75 75 WSW 5 7 29.94 1014 10 16 0.02 0.51
2:52 am 02:52 Mostly Cloudy with Light Rain 69 20.6 62 16.7 78 78 WNW 18 30 29.97 1015 10 16 0.01 0.13
3:52 am 03:52 Mostly Cloudy with Light Rain 68 20 63 17.2 84 84 ENE 9 15 29.88 1012 10 16 0.08 2.03
4:52 am 04:52 Partly Cloudy 66 18.9 63 17.2 90 90 SW 7 11 29.89 1012 10 16 0.01 0.13
5:52 am 05:52 Cloudy 66 18.9 63 17.2 90 90 WNW 6 9 29.91 1013 10 16 0.00 0.00
6:52 am 06:52 Cloudy 65 18.3 63 17.2 93 93 SW 3 6 29.92 1013 10 16 0.00 0.00
7:52 am 07:52 Mostly Cloudy 67 19.4 64 17.8 90 90 SW 3 6 29.91 1013 10 16 0.00 0.00
8:52 am 08:52 Mostly Cloudy 69 20.6 65 18.3 87 87 SSW 5 7 29.93 1013 10 16 0.00 0.00
9:52 am 09:52 Cloudy 73 22.8 64 17.8 73 73 SSW 6 9 29.93 1013 10 16 0.00 0.00
10:52 am 10:52 Mostly Cloudy 76 24.4 65 18.3 69 69 S 6 9 29.91 1013 10 16 0.00 0.00
11:52 am 11:52 Mostly Cloudy 79 26.1 64 17.8 60 60 W 5 7 29.92 1013 10 16 0.00 0.00
12:52 pm 12:52 Cloudy 82 27.8 67 19.4 60 60 NE 5 7 29.91 1013 10 16 0.00 0.00
1:52 pm 13:52 Cloudy 82 27.8 67 19.4 60 60 NNW 7 11 29.92 1013 10 16 0.00 0.00
2:52 pm 14:52 Mostly Cloudy 85 29.4 68 20 57 57 WNW 6 9 29.91 1013 10 16 0.00 0.00
3:52 pm 15:52 Mostly Cloudy 87 30.6 68 20 53 53 undefined N/A 29.90 1012 10 16 0.00 0.00
4:52 pm 16:52 Partly Cloudy 85 29.4 67 19.4 55 55 Calm 29.89 1012 10 16 0.00 0.00
5:52 pm 17:52 Partly Cloudy 87 30.6 66 18.9 50 50 N 10 17 29.89 1012 10 16 0.00 0.00
6:52 pm 18:52 Partly Cloudy 86 30 65 18.3 50 50 NNW 10 17 29.89 1012 10 16 0.00 0.00
7:52 pm 19:52 Mostly Sunny 84 28.9 62 16.7 48 48 NNW 13 20 29.90 1013 10 16 0.00 0.00
8:52 pm 20:52 Partly Cloudy 81 27.2 62 16.7 53 53 NNW 9 15 29.92 1013 10 16 0.00 0.00
9:52 pm 21:52 Mostly Clear 78 25.6 62 16.7 58 58 NNW 7 11 29.93 1014 10 16 0.00 0.00
10:52 pm 22:52 Mostly Clear 76 24.4 61 16.1 60 60 N 9 15 29.96 1015 10 16 0.00 0.00
11:52 pm 23:52 Mostly Clear 78 25.6 55 12.8 45 45 NE 13 20 29.97 1015 10 16 0.00 0.00

Powered by Vaisala Xweather